Wind_Speed
14 12 9 8 7 5 5 1 2 2 2 3 6 3 10 12 15 13 10 8 6 6 16 6 6 8 13 5 19 11 11 6 7 15 9 11 12 7 15 2 6 4 3 3
14 12 10 9 7 4 3 3 2 2 1 3 4 8 8 8 9 9 11 5 5 14 5 7 8 9 16 29 14 7 4 3 2 4 7 5 7 17 14 8 3 3 1 4
13 13 10 10 7 6 5 2 1 1 5 3 7 8 8 9 5 6 15 6 8 11 4 14 5 10 13 23 20 20 9 3 4 2 5 8 7 10 7 3 2 5 12 8
13 14 12 10 9 9 5 2 3 1 2 3 4 9 8 11 10 7 15 7 18 15 8 11 15 8 12 11 24 13 5 9 3 9 17 12 7 7 6 6 3 4 12 18
12 14 14 12 10 11 3 4 3 5 7 4 7 2 6 10 12 9 12 15 17 11 14 16 18 11 8 7 12 7 10 1 8 9 12 21 10 4 10 15 17 18 13 11
12 15 15 13 12 12 1 1 2 4 2 4 4 1 8 11 11 8 15 15 14 12 19 27 26 12 10 4 6 8 10 5 6 10 12 11 11 16 17 19 19 12 11 9
10 15 16 14 14 14 3 4 5 5 4 4 3 6 11 11 10 8 14 16 14 17 27 22 6 1 4 8 7 3 3 7 3 2 1 4 6 18 21 22 20 17 14 12
10 15 17 15 15 13 6 4 3 5 3 9 4 6 9 13 8 9 8 16 19 20 20 5 4 2 6 8 7 6 4 4 2 2 2 10 12 16 14 10 14 18 15 15
13 12 16 16 14 15 11 2 4 1 6 5 6 9 9 6 10 8 12 20 14 21 5 4 7 4 7 5 6 5 6 7 3 2 4 1 6 20 24 14 7 16 17 15
11 12 16 16 14 14 12 5 8 0 3 3 7 8 7 9 9 8 13 22 13 19 6 4 5 4 10 6 8 8 7 5 7 4 3 5 15 23 20 3 4 10 15 16
11 11 15 16 13 12 12 5 4 2 3 9 7 7 6 10 12 7 16 9 10 7 7 5 4 4 5 4 13 9 7 5 5 6 5 4 29 7 6 2 7 10 12 13
12 13 18 18 14 13 10 4 4 7 5 8 12 12 13 11 10 11 9 5 6 6 4 5 4 3 4 9 1 11 5 4 3 6 3 5 11 12 11 11 11 12 12 13
14 13 12 16 17 13 12 7 7 4 5 12 4 2 2 2 6 7 8 7 8 4 6 4 2 4 5 5 5 4 5 12 3 6 6 9 10 10 11 11 11 10 11 11
15 14 13 14 18 15 12 9 5 7 3 4 3 1 1 1 2 5 7 8 6 7 9 3 2 3 7 4 4 5 5 6 3 5 9 11 10 9 8 9 10 10 10 12
15 14 13 10 20 18 13 8 8 9 6 4 7 7 2 1 1 2 3 5 6 8 6 2 3 6 5 5 1 5 9 4 3 2 5 8 6 6 7 8 10 10 11 11
13 14 14 9 16 17 12 4 14 13 13 3 3 4 4 1 1 1 2 3 5 8 7 5 6 5 4 3 3 4 7 7 8 5 4 10 7 5 5 7 8 10 11 11
15 12 9 13 15 19 14 4 0 4 16 3 4 2 1 1 2 1 1 2 3 4 5 5 9 5 3 1 2 8 7 6 7 7 8 6 2 3 3 4 6 7 9 11
14 13 8 16 14 19 23 19 6 9 14 3 3 1 3 4 2 2 1 2 3 4 4 5 8 3 2 2 8 9 8 7 6 5 5 6 4 4 5 4 4 6 9 10
12 9 13 13 9 6 11 17 18 19 6 3 4 2 2 5 3 2 2 3 2 4 2 3 4 3 3 4 10 10 7 5 9 6 5 6 6 6 7 7 8 8 8 9
10 15 9 5 6 12 17 15 12 11 6 4 4 8 3 7 5 4 3 3 2 2 5 1 2 2 6 3 7 11 9 5 6 5 5 4 5 6 8 9 8 8 8 8
14 8 5 5 18 18 6 6 6 6 4 7 7 12 6 7 4 3 5 2 2 3 2 2 3 3 8 8 10 9 7 5 6 8 8 7 8 7 7 8 8 8 6 6
13 8 7 16 7 5 4 5 6 6 5 12 6 11 13 6 5 4 2 2 2 4 3 2 2 3 10 10 9 8 8 8 9 9 10 11 11 10 10 8 7 6 6 7
17 7 7 6 7 6 6 9 4 5 5 8 10 4 5 4 3 0 1 2 4 3 2 3 3 12 11 11 11 10 9 10 11 12 12 13 13 11 9 8 6 5 5 5
6 6 6 4 5 5 4 6 6 7 14 16 15 7 3 2 3 2 3 3 3 3 3 0 6 14 15 13 12 12 12 13 13 13 11 9 8 9 7 6 4 3 3 3
4 3 4 6 2 2 3 5 12 13 19 22 13 6 3 2 3 3 3 3 4 4 1 3 17 19 18 16 13 12 13 12 10 10 10 9 8 7 5 3 2 1 2 4
3 4 3 4 3 2 3 8 10 16 21 20 7 4 4 4 3 5 6 3 4 2 4 17 21 19 16 15 13 13 13 11 11 11 10 8 6 4 2 2 2 3 4 7
3 3 4 7 7 5 8 8 10 16 24 4 4 6 6 4 4 4 4 1 3 14 15 17 18 19 18 17 16 16 14 12 11 10 8 7 4 3 5 6 8 8 10 11
Wind_Direction
198 191 181 179 163 122 81 250 249 329 77 277 233 348 309 308 345 359 5 331 338 293 325 316 340 300 304 232 144 185 196 327 155 200 210 170 194 187 200 254 225 135 59 81
194 191 180 181 178 174 154 269 275 22 93 307 334 14 305 348 357 26 7 327 348 308 325 331 320 307 329 22 28 24 58 201 106 176 290 269 263 184 221 166 277 285 140 117
199 194 183 180 162 149 130 71 325 185 211 182 296 347 325 345 6 15 353 347 313 357 319 340 303 331 360 26 23 350 328 47 325 324 317 162 197 146 179 129 218 305 62 86
206 195 186 180 162 160 110 58 238 140 226 213 333 308 305 339 7 343 341 348 4 358 352 326 350 344 343 5 16 7 45 25 355 317 247 132 145 130 92 95 39 38 56 58
209 197 188 181 159 159 135 173 277 171 261 245 269 259 332 336 344 335 337 357 346 354 358 344 329 345 359 15 2 30 338 316 79 24 63 84 115 168 88 59 31 47 90 82
221 202 187 180 168 169 263 186 268 272 299 235 249 73 313 313 325 330 340 358 342 349 341 322 309 330 325 342 50 49 341 352 31 45 86 98 48 47 71 66 50 44 38 38
228 199 185 183 175 163 192 330 297 280 272 245 334 335 317 322 326 316 333 357 350 322 320 312 295 247 15 57 70 88 344 352 37 44 59 62 97 81 84 67 39 40 44 39
209 193 189 183 182 175 163 114 324 327 308 303 274 326 314 310 326 338 342 360 337 328 317 325 348 273 340 93 63 28 1 290 286 173 145 136 45 19 1 26 47 19 24 21
203 199 194 190 189 184 170 139 204 339 312 350 355 307 303 353 344 337 346 355 346 348 313 349 334 47 334 46 299 68 15 329 259 262 145 218 21 334 329 319 60 9 19 25
206 203 195 196 193 190 198 191 175 203 286 349 359 358 337 335 330 314 6 342 6 3 328 338 5 7 358 1 14 5 2 357 12 1 74 82 345 326 313 354 24 12 22 36
197 199 193 197 193 194 195 212 212 202 280 290 328 310 297 321 342 341 337 334 6 356 13 356 353 334 354 356 29 16 40 334 26 355 40 51 352 19 56 345 46 30 38 37
196 201 201 201 198 191 185 167 182 222 246 267 283 276 263 272 286 309 312 296 17 15 358 20 313 321 341 335 31 23 48 29 50 27 73 72 38 69 53 61 55 36 34 33
192 197 203 207 201 199 198 208 220 264 283 309 266 18 53 243 260 246 277 32 11 22 357 330 303 287 337 3 24 41 73 30 74 169 85 76 71 63 59 57 54 46 37 32
194 204 208 212 206 204 204 225 225 231 282 282 302 64 55 287 275 246 253 274 315 315 310 305 319 290 343 358 358 53 21 39 32 95 127 114 76 58 53 51 49 45 42 39
202 202 213 229 210 204 208 224 247 243 234 327 311 308 155 17 9 275 252 257 290 304 302 315 294 324 339 348 277 53 6 17 11 72 52 86 91 67 51 50 45 42 40 39
194 205 208 221 197 197 200 264 248 233 229 286 298 352 199 292 247 266 261 252 279 283 291 306 290 317 342 331 25 88 73 64 40 110 118 109 122 79 55 52 52 50 48 43
197 203 235 197 193 195 194 184 258 199 202 226 275 218 140 243 217 254 281 283 298 313 308 265 272 293 318 250 324 132 102 83 87 117 116 107 124 87 50 45 50 52 51 46
191 200 214 187 189 205 220 222 273 179 175 199 269 243 170 164 172 203 165 249 264 245 254 287 273 262 221 240 131 131 129 119 91 97 98 109 109 79 53 46 52 62 51 46
183 211 189 196 216 214 218 229 230 180 187 221 204 239 173 175 144 165 187 237 254 245 241 248 292 247 218 118 151 148 155 179 154 136 119 109 89 74 59 58 57 67 55 50
175 174 179 196 194 155 153 141 174 186 213 228 247 234 170 176 164 190 206 231 254 233 215 176 237 234 129 112 134 134 142 152 158 159 162 148 107 85 70 68 69 74 69 62
173 178 196 164 153 165 173 162 173 166 202 213 228 214 161 198 185 182 219 230 268 269 141 226 210 187 144 125 115 119 120 113 91 90 93 94 117 117 103 89 84 80 75 63
181 160 176 162 168 186 195 179 177 197 210 172 192 209 191 175 193 219 208 230 268 248 126 231 250 109 145 143 130 119 114 111 103 102 102 100 102 108 111 109 103 93 73 56
192 212 191 179 176 193 209 174 173 186 150 154 169 141 137 139 159 240 205 243 241 321 226 232 60 136 142 140 135 121 118 114 108 103 104 105 105 107 109 111 98 73 51 34
218 195 183 222 177 225 200 185 172 148 148 156 155 127 135 97 161 160 223 226 264 251 240 194 144 148 143 142 137 138 130 134 130 135 143 136 122 121 112 108 101 74 41 22
234 231 236 209 212 48 125 121 149 140 152 143 133 103 132 171 182 206 226 220 236 225 323 103 132 139 142 140 148 163 158 158 151 140 137 131 126 121 121 119 99 60 25 10
250 246 283 320 182 159 154 151 142 152 151 143 170 147 182 192 189 189 210 233 226 104 96 127 140 145 151 159 163 156 147 149 145 142 141 139 139 137 108 58 16 346 348 344
238 234 256 273 297 217 187 178 176 166 157 176 179 179 190 170 188 209 215 247 91 124 127 141 152 155 160 166 157 151 151 149 146 150 152 148 137 99 43 3 342 343 348 359
Height
1470 1471 1473 1473 1475 1477 1478 1479 1478 1478 1477 1480 1474 1466 1466 1460 1455 1452 1450 1452 1452 1445 1436 1426 1422 1413 1402 1368 1377 1392 1387 1389 1386 1383 1376 1380 1397 1397 1400 1396 1386 1384 1404 1416
1467 1470 1471 1472 1475 1476 1477 1477 1476 1477 1477 1474 1468 1467 1463 1459 1456 1454 1451 1453 1452 1448 1442 1433 1428 1418 1398 1383 1380 1385 1387 1393 1393 1398 1393 1388 1389 1382 1380 1393 1400 1387 1392 1411
1466 1468 1470 1471 1472 1475 1477 1479 1478 1477 1476 1477 1473 1469 1465 1459 1458 1455 1454 1450 1447 1440 1439 1433 1429 1415 1399 1394 1391 1388 1382 1385 1386 1393 1387 1378 1386 1383 1384 1384 1400 1389 1402 1413
1465 1466 1468 1469 1472 1475 1477 1478 1477 1476 1474 1473 1474 1472 1466 1461 1459 1457 1455 1447 1443 1441 1443 1434 1429 1423 1409 1400 1400 1397 1399 1398 1406 1398 1381 1375 1390 1387 1386 1394 1393 1398 1406 1414
1463 1464 1467 1469 1471 1474 1477 1477 1476 1475 1473 1472 1472 1470 1467 1465 1460 1456 1452 1448 1445 1442 1440 1441 1433 1429 1421 1415 1409 1406 1408 1408 1396 1403 1390 1390 1411 1394 1390 1400 1404 1410 1417 1427
1461 1463 1466 1467 1471 1474 1476 1477 1477 1475 1471 1466 1467 1468 1469 1465 1459 1456 1452 1449 1445 1439 1441 1435 1428 1425 1419 1416 1415 1416 1415 1402 1402 1402 1392 1396 1407 1403 1411 1417 1423 1426 1428 1439
1460 1461 1464 1467 1470 1472 1476 1476 1476 1473 1471 1467 1464 1468 1468 1463 1460 1458 1452 1450 1448 1444 1439 1431 1424 1421 1416 1413 1413 1417 1418 1410 1401 1411 1403 1415 1421 1415 1420 1429 1435 1434 1440 1443
1458 1460 1464 1465 1470 1472 1475 1477 1477 1476 1470 1466 1465 1469 1467 1463 1457 1456 1452 1452 1450 1444 1435 1428 1429 1420 1421 1414 1413 1412 1411 1408 1406 1408 1408 1418 1418 1429 1435 1432 1449 1449 1447 1447
1457 1459 1463 1465 1469 1472 1475 1477 1477 1478 1477 1474 1471 1469 1466 1463 1461 1457 1454 1454 1449 1444 1433 1431 1427 1426 1422 1421 1421 1409 1408 1406 1405 1404 1409 1420 1445 1443 1435 1431 1452 1459 1455 1454
1456 1457 1461 1466 1468 1470 1475 1476 1477 1479 1479 1474 1475 1472 1472 1469 1467 1461 1456 1456 1452 1450 1442 1434 1435 1431 1424 1427 1422 1421 1419 1418 1416 1410 1416 1442 1456 1443 1431 1434 1469 1466 1464 1462
1454 1457 1462 1465 1467 1470 1474 1476 1477 1479 1478 1476 1475 1475 1474 1472 1470 1468 1465 1460 1459 1457 1451 1448 1444 1438 1434 1437 1431 1430 1436 1435 1433 1430 1431 1445 1459 1445 1451 1471 1471 1470 1468 1466
1453 1458 1461 1463 1466 1470 1472 1475 1476 1477 1479 1476 1473 1472 1472 1473 1473 1473 1469 1467 1465 1464 1461 1461 1458 1452 1441 1438 1437 1439 1449 1450 1451 1461 1467 1474 1473 1472 1472 1472 1472 1472 1470 1470
1453 1456 1459 1462 1465 1469 1472 1474 1475 1477 1479 1473 1471 1469 1470 1471 1471 1472 1472 1468 1469 1469 1469 1466 1463 1459 1446 1446 1450 1446 1450 1452 1457 1463 1474 1475 1475 1476 1475 1474 1474 1474 1473 1472
1451 1455 1458 1461 1464 1468 1471 1473 1475 1478 1479 1477 1470 1469 1470 1469 1469 1470 1471 1471 1471 1470 1468 1466 1463 1459 1452 1450 1451 1453 1457 1457 1464 1469 1473 1476 1477 1478 1478 1477 1476 1476 1475 1475
1450 1454 1457 1459 1463 1467 1471 1474 1475 1477 1481 1476 1471 1470 1469 1469 1469 1470 1470 1471 1471 1469 1466 1465 1463 1460 1457 1453 1451 1458 1462 1465 1465 1469 1474 1475 1479 1479 1479 1479 1478 1477 1477 1476
1449 1453 1456 1458 1461 1466 1471 1473 1473 1474 1477 1479 1473 1470 1469 1469 1470 1470 1470 1470 1470 1468 1465 1465 1462 1460 1460 1458 1458 1471 1472 1472 1472 1474 1475 1475 1479 1480 1480 1480 1479 1478 1478 1478
1448 1452 1455 1457 1461 1465 1468 1470 1470 1471 1476 1478 1474 1466 1468 1469 1469 1470 1470 1470 1470 1470 1467 1464 1462 1460 1461 1460 1459 1472 1473 1474 1474 1475 1476 1479 1480 1480 1480 1480 1480 1480 1480 1479
1447 1451 1453 1457 1460 1464 1466 1466 1467 1470 1474 1476 1472 1466 1468 1469 1469 1470 1470 1471 1470 1468 1466 1463 1461 1459 1460 1460 1466 1469 1472 1475 1476 1477 1478 1479 1480 1480 1481 1481 1481 1480 1481 1481
1447 1450 1453 1456 1459 1460 1461 1463 1468 1470 1476 1472 1470 1465 1465 1468 1469 1469 1470 1470 1468 1465 1464 1462 1461 1456 1458 1460 1463 1467 1472 1475 1477 1479 1479 1480 1481 1481 1481 1481 1481 1482 1483 1482
1446 1450 1453 1454 1455 1458 1460 1465 1467 1469 1469 1470 1466 1463 1464 1467 1467 1468 1471 1468 1466 1461 1461 1459 1459 1454 1463 1463 1464 1468 1472 1475 1476 1477 1479 1480 1481 1482 1482 1482 1482 1482 1483 1483
1445 1448 1450 1452 1454 1457 1459 1460 1462 1465 1466 1463 1459 1458 1460 1464 1465 1466 1467 1464 1461 1458 1455 1457 1453 1452 1463 1466 1468 1471 1473 1475 1476 1477 1478 1479 1480 1482 1483 1483 1484 1483 1482 1481
1444 1446 1448 1451 1452 1453 1453 1454 1455 1453 1449 1451 1454 1453 1456 1460 1461 1462 1463 1462 1462 1458 1456 1457 1450 1463 1465 1468 1471 1473 1475 1476 1477 1478 1478 1480 1481 1482 1483 1484 1483 1483 1482 1482
1444 1445 1444 1444 1446 1445 1443 1441 1442 1442 1442 1446 1449 1453 1456 1459 1461 1463 1462 1463 1459 1456 1456 1450 1455 1462 1466 1469 1472 1474 1476 1477 1478 1479 1480 1481 1482 1483 1484 1484 1484 1484 1484 1484
1441 1439 1439 1439 1436 1433 1428 1426 1430 1434 1438 1443 1448 1453 1456 1459 1461 1462 1462 1459 1457 1454 1450 1441 1457 1462 1466 1469 1472 1474 1476 1478 1479 1480 1480 1481 1482 1484 1485 1485 1486 1486 1486 1486
1438 1435 1429 1428 1426 1428 1427 1427 1429 1433 1437 1442 1449 1454 1457 1459 1459 1460 1457 1457 1451 1443 1438 1451 1458 1462 1465 1469 1471 1474 1475 1477 1478 1480 1481 1483 1484 1485 1486 1487 1487 1487 1486 1486
1435 1434 1431 1427 1427 1429 1429 1429 1430 1433 1438 1444 1447 1451 1453 1453 1452 1455 1451 1443 1437 1442 1451 1455 1458 1463 1466 1469 1471 1473 1475 1478 1479 1481 1482 1484 1485 1486 1486 1487 1487 1486 1486 1485
1432 1430 1431 1431 1430 1428 1430 1430 1431 1434 1438 1439 1440 1442 1443 1442 1443 1445 1438 1437 1444 1449 1453 1456 1460 1463 1466 1468 1470 1473 1476 1478 1480 1481 1483 1484 1485 1486 1486 1486 1486 1485 1485 1485